Home > Time Zones > World Clock > Weather > Iran > Ahvaz > Past weeks

Flag for Iran Weather past 2 weeks in Ahvaz, Iran

Now
106 °F

Sunny.


Feels Like: 109 °F
Forecast: 87 / 117 °F
Wind: 5 mph from Southwest

Location: Ahwaz

Current Time: Aug 1, 2014 at 12:29:46 PM

Latest Report: Aug 1, 2014 at 12:00 PM


Visibility: 5 mi

Pressure: 29.47 "Hg

Humidity: 25%

Dew point: 63 °F

Location of AhvazLocation

Historic Weather in Ahvaz — Graph

°F

Ahvaz temperature yesterday

Maximum temperature yesterday: 113 °F (at 5:00 PM)
Minimum temperature yesterday: 86 °F (at 6:30 AM)
Average temperature yesterday: 101 °F

Past Weeks' High & Low Weather Summary

 TemperatureHumidityPressure
High122 °F (Jul 17, 1:30 PM)70% (Jul 31, 6:30 AM)29.56 "Hg (Jul 31, 6:30 AM)
Low82 °F (Jul 30, 5:30 AM)7% (Jul 27, 2:30 PM)29.30 "Hg (Jul 17, 6:30 PM)
Average103 °F22%29.41 "Hg
* Reported Jul 17 10:30 AM — Aug 1 11:00 AM, Ahvaz, Weather by CustomWeather, © 2014

Note: Actual official high and low records may vary slightly from our data, if they occured in-between our weather recording intervals... More about our weather records

Advertising

Ahvaz weather history for previous 24 hours

 ConditionsComfort  
Time TempWeatherWind HumidityBarometerVisibility
11:00 AM
Aug 1
100 °FSunny.5 mph40%29.45 "Hg5 mi
10:00 AM97 °FSunny.5 mph47%29.45 "Hg10 mi
9:00 AM91 °FSunny.5 mph59%29.45 "Hg10 mi
8:30 AM90 °FSunny.7 mph67%29.45 "Hg10 mi
8:00 AM88 °FClear.7 mph66%29.45 "Hg10 mi
6:30 AM86 °FClear.N/A62%29.42 "Hg5 mi
5:30 AM88 °FClear.2 mph59%29.42 "Hg5 mi
4:30 AM88 °FClear.No wind46%29.42 "Hg10 mi
3:30 AM91 °FClear.No wind32%29.42 "Hg10 mi
2:30 AM95 °FClear.2 mph30%29.42 "Hg10 mi
1:30 AM99 °FClear.5 mph27%29.42 "Hg10 mi
1:00 AM99 °FClear.5 mph37%29.42 "Hg10 mi
12:30 AM99 °FClear.5 mph39%29.42 "Hg10 mi
12:00 AM99 °FClear.9 mph42%29.42 "Hg10 mi
11:30 PM
Jul 31
99 °FClear.7 mph42%29.42 "Hg10 mi
11:00 PM99 °FClear.5 mph39%29.39 "Hg10 mi
10:30 PM100 °FClear.5 mph37%29.39 "Hg10 mi
10:00 PM100 °FClear.5 mph45%29.39 "Hg10 mi
9:30 PM99 °FSunny.5 mph47%29.39 "Hg10 mi
9:00 PM99 °FSunny.No wind44%29.39 "Hg10 mi
8:00 PM102 °FSunny.5 mph42%29.36 "Hg10 mi
7:30 PM109 °FSunny.No wind34%29.36 "Hg10 mi
7:00 PM111 °FSunny.5 mph25%29.36 "Hg10 mi
6:30 PM111 °FSunny.5 mph25%29.36 "Hg10 mi
6:00 PM111 °FSunny.7 mph27%29.39 "Hg10 mi
5:30 PM113 °FSunny.9 mph25%29.39 "Hg10 mi
5:00 PM113 °FSunny.5 mph29%29.39 "Hg10 mi
4:00 PM111 °FSunny.7 mph25%29.42 "Hg10 mi
2:30 PM109 °FSunny.7 mph27%29.42 "Hg10 mi
2:00 PM109 °FSunny.5 mph28%29.42 "Hg10 mi
1:00 PM108 °FSunny.7 mph26%29.45 "Hg10 mi
12:00 PM104 °FSunny.5 mph31%29.45 "Hg10 mi
Weather by CustomWeather, © 2014

See weather overviewHow to use our weather pages